TimeEDT,TemperatureF,Dew PointF,Humidity,Sea Level PressureIn,VisibilityMPH,Wind Direction,Wind SpeedMPH,Gust SpeedMPH,PrecipitationIn,Events,Conditions,WindDirDegrees,DateUTC
12:14 AM,58.6,55.9,91,30.01,3.0,South,3.5,-,N/A,Rain,Light Rain,170,2012-10-04 04:14:00
12:35 AM,58.6,55.9,91,30.01,3.0,South,4.6,-,N/A,Rain,Light Rain,180,2012-10-04 04:35:00
12:54 AM,58.8,56.1,91,30.00,5.0,Calm,Calm,-,N/A,,Drizzle,0,2012-10-04 04:54:00
1:15 AM,59.0,56.3,91,30.00,7.0,South,4.6,-,N/A,,Overcast,190,2012-10-04 05:15:00
1:35 AM,59.0,56.3,91,30.00,5.0,SSW,4.6,-,N/A,Rain,Light Rain,210,2012-10-04 05:35:00
1:54 AM,59.0,55.9,90,30.00,5.0,SSW,3.5,-,N/A,,Overcast,210,2012-10-04 05:54:00
2:15 AM,58.6,55.9,91,30.00,5.0,South,3.5,-,N/A,,Overcast,190,2012-10-04 06:15:00
2:35 AM,58.6,55.9,91,30.00,5.0,South,3.5,-,N/A,,Overcast,180,2012-10-04 06:35:00
2:54 AM,58.6,55.8,90,29.99,7.0,South,4.6,-,N/A,,Overcast,190,2012-10-04 06:54:00
3:15 AM,58.1,55.0,90,29.98,7.0,SSW,3.5,-,N/A,,Overcast,200,2012-10-04 07:15:00
3:34 AM,58.1,55.0,90,29.98,7.0,SSW,4.6,-,N/A,,Overcast,200,2012-10-04 07:34:00
3:54 AM,58.1,54.7,88,29.97,7.0,SSW,4.6,-,N/A,,Overcast,200,2012-10-04 07:54:00
4:15 AM,57.9,54.7,89,29.97,7.0,SSW,5.8,-,N/A,,Overcast,200,2012-10-04 08:15:00
4:34 AM,57.7,54.5,89,29.97,7.0,SW,4.6,-,N/A,,Overcast,220,2012-10-04 08:34:00
4:55 AM,57.4,54.5,90,29.97,7.0,SSW,3.5,-,N/A,,Overcast,200,2012-10-04 08:55:00
5:15 AM,57.4,54.3,90,29.96,7.0,South,3.5,-,N/A,,Overcast,190,2012-10-04 09:15:00
5:34 AM,57.2,54.3,90,29.96,5.0,SSW,4.6,-,N/A,,Overcast,200,2012-10-04 09:34:00
5:55 AM,57.2,54.5,91,29.96,5.0,South,4.6,-,N/A,Rain,Rain,190,2012-10-04 09:55:00
6:15 AM,57.2,54.3,90,29.95,5.0,South,4.6,-,N/A,,Light Drizzle,190,2012-10-04 10:15:00
6:55 AM,57.2,54.3,90,29.95,5.0,South,4.6,-,N/A,Rain,Light Rain,190,2012-10-04 10:55:00
7:14 AM,57.2,54.1,89,29.94,4.0,SSW,5.8,-,N/A,Rain,Rain,200,2012-10-04 11:14:00
7:34 AM,57.2,54.1,89,29.94,4.0,SSW,5.8,-,N/A,Rain,Rain,200,2012-10-04 11:34:00
7:55 AM,57.2,54.1,89,29.94,7.0,SSW,6.9,-,N/A,Rain,Light Rain,210,2012-10-04 11:55:00
8:14 AM,57.2,54.1,89,29.94,3.0,SSW,6.9,-,N/A,Rain,Light Rain,210,2012-10-04 12:14:00
8:35 AM,57.2,54.5,91,29.94,3.0,SW,6.9,-,N/A,Rain,Light Rain,230,2012-10-04 12:35:00
8:55 AM,57.4,54.5,90,29.94,7.0,WSW,5.8,-,N/A,,Overcast,240,2012-10-04 12:55:00
9:14 AM,57.6,54.7,90,29.93,10.0,SW,6.9,-,N/A,,Overcast,230,2012-10-04 13:14:00
9:35 AM,58.5,55.4,90,29.93,10.0,WSW,6.9,-,N/A,,Overcast,250,2012-10-04 13:35:00
9:54 AM,58.5,55.2,89,29.94,10.0,West,4.6,-,N/A,,Overcast,260,2012-10-04 13:54:00
10:14 AM,58.5,55.4,90,29.94,10.0,WSW,6.9,-,N/A,,Overcast,250,2012-10-04 14:14:00
10:35 AM,60.6,56.3,86,29.94,10.0,SW,5.8,-,N/A,,Mostly Cloudy,230,2012-10-04 14:35:00
10:54 AM,61.0,55.9,83,29.95,10.0,WSW,5.8,-,N/A,,Mostly Cloudy,250,2012-10-04 14:54:00
11:14 AM,60.4,55.0,82,29.95,10.0,West,6.9,-,N/A,,Mostly Cloudy,260,2012-10-04 15:14:00
11:35 AM,62.1,55.4,79,29.94,10.0,West,3.5,-,N/A,,Mostly Cloudy,260,2012-10-04 15:35:00
11:54 AM,61.2,55.4,81,29.94,10.0,West,3.5,-,N/A,,Overcast,270,2012-10-04 15:54:00
12:15 PM,63.0,56.7,80,29.94,10.0,WNW,4.6,-,N/A,,Overcast,290,2012-10-04 16:15:00
12:34 PM,63.5,54.5,72,29.95,10.0,West,6.9,-,N/A,,Overcast,270,2012-10-04 16:34:00
12:55 PM,63.1,54.5,73,29.94,10.0,WNW,4.6,-,N/A,,Overcast,290,2012-10-04 16:55:00
1:14 PM,63.9,54.5,72,29.95,10.0,WSW,9.2,-,N/A,,Overcast,240,2012-10-04 17:14:00
1:35 PM,67.1,55.2,66,29.94,10.0,West,6.9,-,N/A,,Mostly Cloudy,270,2012-10-04 17:35:00
1:55 PM,66.6,54.5,65,29.93,10.0,WSW,5.8,-,N/A,,Mostly Cloudy,250,2012-10-04 17:55:00
2:35 PM,69.6,52.7,55,29.92,10.0,SW,11.5,-,N/A,,Scattered Clouds,230,2012-10-04 18:35:00
2:55 PM,70.0,52.3,53,29.91,10.0,WSW,8.1,-,N/A,,Scattered Clouds,250,2012-10-04 18:55:00
3:14 PM,70.3,53.1,54,29.91,10.0,SW,9.2,-,N/A,,Clear,230,2012-10-04 19:14:00
3:35 PM,70.5,51.6,51,29.91,10.0,SSW,8.1,-,N/A,,Clear,210,2012-10-04 19:35:00
3:54 PM,71.1,51.8,50,29.90,10.0,SW,8.1,-,N/A,,Clear,230,2012-10-04 19:54:00
4:14 PM,71.6,51.6,49,29.90,10.0,SSW,8.1,-,N/A,,Clear,210,2012-10-04 20:14:00
4:35 PM,72.3,52.0,49,29.89,10.0,SSW,6.9,-,N/A,,Clear,200,2012-10-04 20:35:00
4:54 PM,71.2,54.1,55,29.88,10.0,North,4.6,-,N/A,,Clear,10,2012-10-04 20:54:00
5:15 PM,71.8,52.3,50,29.87,10.0,South,4.6,-,N/A,,Clear,190,2012-10-04 21:15:00
5:35 PM,72.5,50.9,47,29.88,10.0,SSW,4.6,-,N/A,,Clear,210,2012-10-04 21:35:00
5:54 PM,71.6,50.5,47,29.88,10.0,South,8.1,-,N/A,,Clear,180,2012-10-04 21:54:00
6:15 PM,69.8,51.8,53,29.88,10.0,South,6.9,-,N/A,,Scattered Clouds,190,2012-10-04 22:15:00
6:35 PM,69.1,52.0,54,29.88,10.0,SSW,9.2,-,N/A,,Mostly Cloudy,200,2012-10-04 22:35:00
6:54 PM,68.4,52.2,56,29.88,10.0,SSW,5.8,-,N/A,,Mostly Cloudy,200,2012-10-04 22:54:00
7:14 PM,67.5,52.3,58,29.88,10.0,South,6.9,-,N/A,,Mostly Cloudy,190,2012-10-04 23:14:00
7:34 PM,68.0,52.2,57,29.87,10.0,South,8.1,-,N/A,,Overcast,190,2012-10-04 23:34:00
7:55 PM,67.1,52.2,59,29.87,10.0,South,6.9,-,N/A,,Mostly Cloudy,180,2012-10-04 23:55:00
8:14 PM,67.1,52.3,59,29.87,10.0,South,5.8,-,N/A,,Mostly Cloudy,170,2012-10-05 00:14:00
8:34 PM,66.4,52.5,61,29.87,10.0,South,6.9,-,N/A,,Mostly Cloudy,180,2012-10-05 00:34:00
8:54 PM,66.6,52.0,59,29.86,10.0,South,8.1,-,N/A,,Mostly Cloudy,190,2012-10-05 00:54:00
10:15 PM,65.3,52.0,62,29.85,10.0,SSW,10.4,-,N/A,,Clear,210,2012-10-05 02:15:00
10:34 PM,65.7,52.7,63,29.85,10.0,SW,6.9,-,N/A,,Mostly Cloudy,220,2012-10-05 02:34:00
10:55 PM,65.7,52.7,63,29.85,10.0,SW,11.5,-,N/A,,Mostly Cloudy,230,2012-10-05 02:55:00
11:15 PM,65.1,51.6,62,29.86,10.0,WSW,9.2,16.1,N/A,,Scattered Clouds,250,2012-10-05 03:15:00
11:34 PM,64.2,49.5,59,29.86,10.0,WSW,15.0,20.7,N/A,,Scattered Clouds,240,2012-10-05 03:34:00
11:55 PM,63.1,48.2,58,29.87,10.0,West,15.0,21.9,N/A,,Mostly Cloudy,260,2012-10-05 03:55:00